Weather Roundup
Issued by NWS

Home | Current Version | Previous Version | Text Only | Print | Product List | Glossary On
Versions: 1 2 3 4 5 6 7 8 9 10 11 12 13 14 15 16 17 18 19 20 21 22 23 24 25 26 27 28 29 30 31 32 33 34 35 36 37 38 39 40 41 42 43 44 45 46 47 48 49 50
000
NZUS93 KARX 211159
HRRWXR

CURRENT HOURLY OBSERVATIONS ACROSS
MUCH OF THE UPPER MISSISSIPPI VALLEY
NATIONAL WEATHER SERVICE LA CROSSE WI
700 AM CDT SAT APR 21 2018


...SOUTHEAST MINNESOTA...


CITY           SKY/WX    TMP DP  RH WIND       PRES   REMARKS
ROCHESTER      CLOUDY    37  27  67 S5        30.42R WCI  33
ROCHESTER/MAYO CLOUDY    38  27  64 W5        30.43R WCI  35
WINONA         FAIR      36  32  87 CALM      30.42R
AUSTIN         CLOUDY    36  27  69 NE3       30.40F
ALBERT LEA     CLOUDY    36  27  69 NE5       30.40F WCI  32
DODGE CENTER   FAIR      36  27  69 CALM      30.42R
PRESTON        CLOUDY    37  27  67 CALM      30.43R
OWATONNA       FAIR      36  30  80 E3        30.42R
FARIBAULT      NOT AVBL
$$

...ELSEWHERE IN MINNESOTA...


CITY           SKY/WX    TMP DP  RH WIND       PRES   REMARKS
MINNEAPOLIS    MOCLDY    38  28  67 CALM      30.44R
INTNL FALLS    FAIR      27  25  92 CALM      30.38R
DULUTH         FAIR      30  22  72 NW3       30.40R
RED WING       FAIR      34  27  75 CALM      30.43R
REDWOOD FALLS  CLOUDY    34  29  82 NE5       30.40S WCI  30
MANKATO        CLOUDY    36  29  75 NE3       30.41F
WORTHINGTON    CLOUDY    38  27  64 SE6       30.37S WCI  33
FAIRMONT       CLOUDY    35  29  78 CALM      30.39F
$$

...SOUTHWEST WISCONSIN...


CITY           SKY/WX    TMP DP  RH WIND       PRES   REMARKS
LA CROSSE      CLOUDY    37  30  75 SE3       30.43R
PRAIRIE DU CHI CLOUDY    38  32  78 CALM      30.43R
BOSCOBEL       CLOUDY    38  32  79 CALM      30.45R
LONE ROCK      NOT AVBL
PLATTEVILLE    CLOUDY    42  29  60 CALM      30.43R
FORT MC COY    FAIR      29  26  87 CALM      30.44R
CAMP DOUGLAS   FAIR      30  27  88 CALM      30.42S
MAUSTON-NEW LI FAIR      31  26  80 CALM      30.42S
VIROQUA        CLOUDY    39  25  57 SE5       30.41R
WIS DELLS      FAIR      31  21  66 CALM      30.43R
$$

...ELSEWHERE IN WISCONSIN...


CITY           SKY/WX    TMP DP  RH WIND       PRES   REMARKS
MILWAUKEE      CLOUDY    36  26  67 CALM      30.46R
MADISON        CLOUDY    34  27  75 CALM      30.43S
GREEN BAY      FAIR      34  24  67 S6        30.45R WCI  29
EAU CLAIRE     NOT AVBL
BLACK RVR FLS  FAIR      30  25  81 CALM      30.43R
MEDFORD        FAIR      28  23  82 CALM      30.41R
WAUSAU         FAIR      30  22  72 CALM      30.41R
WIS RAPIDS     FAIR      32  21  64 CALM      30.44R
MARSHFIELD     FAIR      34  25  69 CALM      30.40S
RICE LAKE      FAIR      29  26  89 CALM      30.44S
$$

...NORTHEAST IOWA...


CITY           SKY/WX    TMP DP  RH WIND       PRES   REMARKS
WATERLOO       CLOUDY    45  31  58 E8        30.39S
DUBUQUE        CLOUDY    44  21  40 SE6       30.42R
DECORAH        CLOUDY    39  30  70 E5        30.41R
MASON CITY     CLOUDY    41  29  62 SE3       30.40S
CHARLES CITY   CLOUDY    41  30  65 E8        30.41R
OELWEIN        CLOUDY    43  36  75 S6        30.42R
$$

...ELSEWHERE IN IOWA...


CITY           SKY/WX    TMP DP  RH WIND       PRES   REMARKS
DES MOINES     CLOUDY    46  31  55 E9        30.36S
IOWA CITY      FAIR      45  29  53 NE5       30.41R
FORT DODGE     CLOUDY    39  34  82 NE5       30.37S
MARSHALLTOWN   CLOUDY    42  35  76 E8        30.36F
CEDAR RAPIDS   FAIR      44  29  55 E6        30.39R
$$

...NORTHERN ILLINOIS...


CITY           SKY/WX    TMP DP  RH WIND       PRES   REMARKS
CHICAGO-OHARE  MOCLDY    43  22  43 E3        30.43S
CHICAGO-MIDWAY CLOUDY    45  19  35 E6        30.44S
MOLINE         FAIR      44  29  55 E5        30.40S
ROCKFORD       CLOUDY    42  23  46 S3        30.45R
PEORIA         FAIR      45  27  49 NE7       30.41R
$$

NOTE: "FAIR" INDICATES FEW OR NO CLOUDS BELOW 12,000 FEET WITH NO
SIGNIFICANT WEATHER AND/OR OBSTRUCTIONS TO VISIBILITY. WIND
SPEEDS ARE IN MILES-PER-HOUR.




USA.gov is the U.S. government's official web portal to all federal, state and local government web resources and services.